Regional Weather Roundup
Issued by NWS

Home | Current Version | Previous Version | Graphics & Text | Print | Product List | Glossary On
Versions: 1 2 3 4 5 6 7 8 9 10 11 12 13 14 15 16 17 18 19 20 21 22 23 24 25 26 27 28 29 30 31 32 33 34 35 36 37 38 39 40 41 42 43 44 45 46 47 48 49 50
000
ASUS44 KFWD 222215
RWRTX
NORTH TEXAS HOURLY WEATHER ROUNDUP
NATIONAL WEATHER SERVICE FORT WORTH TX
400 PM CST MON DEC 22 2014

NOTE: "FAIR" INDICATES FEW OR NO CLOUDS BELOW 12,000 FEET WITH NO
SIGNIFICANT WEATHER AND/OR OBSTRUCTIONS TO VISIBILITY.

TXZ118-119-222300-
DALLAS/FORT WORTH METROPLEX

CITY           SKY/WX    TMP DP  RH WIND       PRES   REMARKS
DFW AIRPORT    CLOUDY    60  45  57 NW16      29.60R
DALLAS LOVE    PTSUNNY   60  46  59 NW12      29.60R
FTW MEACHAM    PTSUNNY   60  44  55 NW13G22   29.61R
DAL-EXECUTIVE  MOSUNNY   62  44  51 NW17      29.60R
FTW-ALLIANCE   CLOUDY    58  44  60 NW15      29.62R
FTW-SPINKS     PTSUNNY   63  43  48 W16G22    29.63R
ARLINGTON      MOSUNNY   62  42  47 NW13      29.60R
GRAND PRAIRIE  SUNNY     61  46  59 NW7       29.62R
MESQUITE       SUNNY     63  43  48 W14       29.60
LANCASTER      MOSUNNY   61  43  51 NW10      29.62R
$$

TXZ091>094-102>105-117-120-121-131>134-222300-
NORTH CENTRAL TEXAS

CITY           SKY/WX    TMP DP  RH WIND       PRES   REMARKS
SHRMAN/DENISON PTSUNNY   60  48  65 NW7       29.60R
GAINESVILLE    PTSUNNY   59  44  58 W14       29.64R
BOWIE          PTSUNNY   58  41  52 NW10      29.64R
BRIDGEPORT     PTSUNNY   59  45  59 NW12      29.65R
DECATUR        PTSUNNY   57  43  58 NW9       29.64R
DENTON         PTSUNNY   58  44  60 NW14      29.62R
MCKINNEY       PTSUNNY   61  46  57 W13       29.60R
GREENVILLE     MOSUNNY   64  43  45 W10       29.58R
ROCKWALL       MOSUNNY   62  44  51 W12G17    29.58R
TERRELL        MOSUNNY   64  42  44 W13G18    29.59R
WAXAHACHIE     MOSUNNY   63  45  52 W9        29.62R
CLEBURNE       CLOUDY    61  45  55 NW9       29.63R
GRANBURY       CLOUDY    63  44  49 NW14G21   29.63S
$$

TXZ083>090-098>101-113>116-127>130-139>142-154-155-222300-
WESTERN NORTH TEXAS

CITY           SKY/WX    TMP DP  RH WIND       PRES   REMARKS
WICHITA FALLS  CLOUDY    58  38  47 NW13      29.63R
WF-KICKAPOO    CLOUDY    59  34  38 NW9G16    29.65R
VERNON         CLOUDY    59  29  32 NW6       29.65S
ABILENE        PTSUNNY   64  36  35 N13       29.65F
ABILENE-DYESS  SUNNY     62  37  39 N8        29.65S
BRECKENRIDGE   PTSUNNY   63  37  37 N10G16    29.65F HAZE
GRAHAM         CLOUDY    59  42  54 NW5       29.64S
MINERAL WELLS  CLOUDY    59  41  51 NW12      29.64R
STEPHENVILLE   CLOUDY    62  40  45 NW9       29.65S
COMANCHE       CLOUDY    63  40  43 N8        29.63F
BROWNWOOD      CLOUDY    63  37  39 NW8       29.63F
COLEMAN        CLOUDY    63  39  41 NW7       29.64F
BRADY          SUNNY     70  37  30 NW12      29.63R
$$

TXZ143>147-156>162-174-175-222300-
CENTRAL TEXAS

CITY           SKY/WX    TMP DP  RH WIND       PRES   REMARKS
WACO           CLOUDY    68  38  33 NW14G21   29.59R
WACO-TSTC      SUNNY     70  37  30 NW16      29.59
WACO-MCGREGOR  CLOUDY    68  37  32 NW12      29.61R
HILLSBORO      CLOUDY    64  43  46 NW14      29.60F
CORSICANA      PTSUNNY   69  42  37 W12       29.59R
MEXIA          CLOUDY    69  44  40 W8        29.57R
HEARNE         MOSUNNY   72  48  42 W8        29.60S
CAMERON        MOSUNNY   73  47  39 W8        29.59S
TEMPLE         CLOUDY    70  39  32 W12       29.59R
KILLEEN        CLOUDY    69  37  31 NW10      29.61R
KILLEEN-SKYLRK CLOUDY    70  39  32 W13       29.59S
FORT HOOD      CLOUDY    70  37  30 W10       29.60R
GATESVILLE     CLOUDY    66  39  37 NW8       29.63S
HAMILTON       PTSUNNY   67  38  34 NW18      29.63R
$$

TXZ095>097-106>112-122>126-135>138-148>153-164>167-222300-
EAST TEXAS

CITY           SKY/WX    TMP DP  RH WIND       PRES   REMARKS
PARIS          MOSUNNY   64  46  52 SW12      29.56R
SULPHUR SPRNGS MOSUNNY   67  46  45 W13       29.58R
MOUNT PLEASANT PTSUNNY   68  48  48 SW10      29.55F
MINEOLA        MOSUNNY   70  43  37 W9        29.56R
TYLER          SUNNY     68  47  46 SW10      29.55S
LONGVIEW       SUNNY     71  49  45 W9G18     29.55R
MARSHALL       MOSUNNY   73  55  52 SW13      29.57S
ATHENS         SUNNY     68  45  42 SW8       29.56R
PALESTINE      MOSUNNY   69  50  50 SW12      29.58S
JACKSONVILLE   MOSUNNY   68  50  52 SW6       29.58S
HENDERSON      SUNNY     69  51  52 SW6       29.57R
NACOGDOCHES    PTSUNNY   66  54  63 SW10      29.58F
LUFKIN         PTSUNNY   72  55  55 SW10      29.58S
$$

SUPPLEMENTAL OBSERVATIONS (CENTRAL)

CITY           SKY/WX    TMP DP  RH WIND       PRES   REMARKS
LAKE TEXOMA      N/A     57  45  62 W12         N/A
CADDO GRASSLND   N/A     63  43  48 W10         N/A
PAT MAYSE LAKE   N/A     63  46  55 SW7         N/A
GREENVILLE       N/A     64  43  45 W12         N/A
CEDAR HILL       N/A     61  45  55 NW7         N/A
ATHENS           N/A     70  46  43 W3G13       N/A
MCGREGOR         N/A     68  37  32 NW8         N/A
$$

SUPPLEMENTAL OBSERVATIONS (WEST)

CITY           SKY/WX    TMP DP  RH WIND       PRES   REMARKS
MILLERS CREEK    N/A     61  39  44 N7G17       N/A
LBJ GRASSLAND    N/A     57  41  54 W10         N/A
HAMBY            N/A     63  36  36 N9          N/A
IVIE RESERVOIR   N/A     64  36  34 N9G17       N/A
COLORADO BEND    N/A     66  37  34 N5          N/A
$$

SUPPLEMENTAL OBSERVATIONS (EAST)

CITY           SKY/WX    TMP DP  RH WIND       PRES   REMARKS
TEXARKANA        N/A     64  55  72 SE2         N/A
LINDEN           N/A     68  50  52 SW5G14      N/A
CADDO LAKE       N/A     70  52  52 W3          N/A
N SABINE NF      N/A     68  54  60 MISG        N/A
$$

SUPPLEMENTAL OBSERVATIONS ARE A COLLECTION OF AUTOMATED INSTRUMENTS
THAT ARE MAINTAINED BY A VARIETY OF FEDERAL AND STATE AGENCIES.
CERTAIN ELEMENTS...SUCH AS HUMIDITY VALUES AND SUSTAINED WIND
SPEEDS...MAY BE APPROXIMATED.




USA.gov is the U.S. government's official web portal to all federal, state and local government web resources and services.